Tracking 27079 objects as of 23-Mar-2023
HD Live streaming from Space Station
objects crossing your sky now

STARLINK-4381

Track STARLINK-4381 now!
10-day predictions
STARLINK-4381 is classified as:


NORAD ID: 53222
Int'l Code: 2022-084AK
Perigee: 568.9 km
Apogee: 571.4 km
Inclination: 97.7 °
Period: 95.9 minutes
Semi major axis: 6941 km
RCS: Unknown
Launch date: July 22, 2022
Source: United States (US)
Launch site: AIR FORCE WESTERN TEST RANGE (AFWTR)
Your satellite tracking list
Your tracking list is empty




NASA's NSSDC Master Catalog

Two Line Element Set (TLE):
1 53222U 22084AK  23081.70224219  .00000743  00000-0  62464-4 0  9991
2 53222  97.6537 144.0118 0001744  97.2523 262.8900 15.01260662 36832
Source of the keplerian elements: AFSPC